• In Russia
  • List of Countries
  • For 7 days
  • Water Temperature
  • Satellite Maps
  • Weather Map
  • Weather Widgets
  • user-avatar
    Login

    Hourly Weather Pepel

    Today, 19 December, Wednesday

    Time Temperature Precipitation Wind Pressure Humidity
    00:00 +27°C° 0 mm 2 mps 759 mmHg 82%
    01:00 +26°C° 0 mm 2 mps 759 mmHg 84%
    02:00 +26°C° 0 mm 2 mps 759 mmHg 85%
    03:00 +26°C° 0 mm 2 mps 759 mmHg 86%
    04:00 +26°C° 0 mm 2 mps 759 mmHg 87%
    05:00 +25°C° 0 mm 2 mps 759 mmHg 88%
    06:00 +27°C° 0 mm 2 mps 759 mmHg 81%
    07:00 +28°C° 0 mm 2 mps 760 mmHg 74%
    08:00 +30°C° 0 mm 2 mps 760 mmHg 68%
    09:00 +32°C° 0 mm 2 mps 760 mmHg 60%
    10:00 +35°C° 0 mm 2 mps 759 mmHg 52%
    11:00 +36°C° 0 mm 2 mps 759 mmHg 44%
    12:00 +37°C° 0 mm 2 mps 759 mmHg 42%
    13:00 +37°C° 0 mm 2 mps 758 mmHg 40%
    14:00 +38°C° 0 mm 3 mps 757 mmHg 38%
    15:00 +36°C° 0 mm 3 mps 757 mmHg 44%
    16:00 +34°C° 0 mm 3 mps 757 mmHg 50%
    17:00 +33°C° 0 mm 3 mps 757 mmHg 57%
    18:00 +30°C° 0 mm 3 mps 758 mmHg 62%
    19:00 +29°C° 0 mm 3 mps 758 mmHg 68%
    20:00 +28°C° 0 mm 3 mps 759 mmHg 73%
    21:00 +28°C° 0 mm 3 mps 759 mmHg 75%
    22:00 +27°C° 0 mm 3 mps 759 mmHg 78%
    23:00 +27°C° 0 mm 3 mps 759 mmHg 80%

    Tomorrow, 20 December, Thursday

    Time Temperature Precipitation Wind Pressure Humidity
    00:00 +27°C° 0 mm 2 mps 759 mmHg 82%
    01:00 +26°C° 0 mm 2 mps 759 mmHg 83%
    02:00 +26°C° 0 mm 2 mps 758 mmHg 85%
    03:00 +26°C° 0 mm 2 mps 758 mmHg 86%
    04:00 +26°C° 0 mm 1 mps 758 mmHg 87%
    05:00 +25°C° 0 mm 1 mps 758 mmHg 88%
    06:00 +27°C° 0 mm 1 mps 759 mmHg 81%
    07:00 +29°C° 0 mm 1 mps 759 mmHg 75%
    08:00 +30°C° 0 mm 1 mps 760 mmHg 68%
    09:00 +33°C° 0 mm 1 mps 760 mmHg 59%
    10:00 +35°C° 0 mm 1 mps 760 mmHg 50%
    11:00 +36°C° 0 mm 0 mps 760 mmHg 41%
    12:00 +39°C° 0 mm 1 mps 759 mmHg 39%
    13:00 +39°C° 0 mm 2 mps 758 mmHg 37%
    14:00 +38°C° 0 mm 2 mps 757 mmHg 36%
    15:00 +37°C° 0 mm 3 mps 757 mmHg 42%
    16:00 +35°C° 0 mm 3 mps 757 mmHg 49%
    17:00 +33°C° 0 mm 3 mps 757 mmHg 56%
    18:00 +31°C° 0 mm 3 mps 757 mmHg 62%
    19:00 +30°C° 0 mm 3 mps 758 mmHg 69%
    20:00 +28°C° 0 mm 3 mps 758 mmHg 75%
    21:00 +28°C° 0 mm 3 mps 759 mmHg 77%
    22:00 +28°C° 0 mm 2 mps 759 mmHg 79%
    23:00 +27°C° 0 mm 2 mps 759 mmHg 81%

    Day after tomorrow, 21 December, Friday

    Time Temperature Precipitation Wind Pressure Humidity
    00:00 +27°C° 0 mm 2 mps 758 mmHg 83%
    01:00 +27°C° 0 mm 2 mps 758 mmHg 84%
    02:00 +26°C° 0 mm 2 mps 757 mmHg 86%
    03:00 +26°C° 0 mm 1 mps 758 mmHg 87%
    04:00 +26°C° 0 mm 1 mps 758 mmHg 88%
    05:00 +26°C° 0 mm 1 mps 758 mmHg 89%
    06:00 +27°C° 0 mm 1 mps 759 mmHg 83%
    07:00 +29°C° 0 mm 1 mps 759 mmHg 76%
    08:00 +31°C° 0 mm 1 mps 760 mmHg 70%
    09:00 +32°C° 0 mm 1 mps 760 mmHg 64%
    10:00 +33°C° 0 mm 1 mps 759 mmHg 58%
    11:00 +34°C° 0 mm 1 mps 759 mmHg 53%
    12:00 +35°C° 0 mm 2 mps 759 mmHg 51%
    13:00 +36°C° 0 mm 2 mps 758 mmHg 50%
    14:00 +36°C° 0 mm 2 mps 757 mmHg 48%
    15:00 +35°C° 0 mm 2 mps 757 mmHg 52%
    16:00 +34°C° 0 mm 2 mps 757 mmHg 55%
    17:00 +33°C° 0 mm 3 mps 757 mmHg 59%
    18:00 +31°C° 0 mm 3 mps 757 mmHg 65%
    19:00 +30°C° 0 mm 3 mps 758 mmHg 71%
    20:00 +28°C° 0 mm 3 mps 759 mmHg 77%
    21:00 +28°C° 0 mm 3 mps 759 mmHg 80%
    22:00 +28°C° 0 mm 2 mps 759 mmHg 82%
    23:00 +27°C° 0 mm 2 mps 759 mmHg 84%

    22 December, Saturday

    Time Temperature Precipitation Wind Pressure Humidity
    00:00 +27°C° 0 mm 2 mps 758 mmHg 85%
    01:00 +27°C° 0 mm 2 mps 758 mmHg 87%
    02:00 +27°C° 0 mm 2 mps 757 mmHg 88%
    03:00 +27°C° 0 mm 2 mps 758 mmHg 88%
    04:00 +27°C° 0 mm 1 mps 758 mmHg 88%
    05:00 +27°C° 0 mm 1 mps 758 mmHg 88%
    06:00 +28°C° 0.1 mm 1 mps 758 mmHg 84%
    07:00 +28°C° 0.1 mm 1 mps 759 mmHg 81%
    08:00 +29°C° 0.1 mm 1 mps 759 mmHg 77%
    09:00 +32°C° 0 mm 1 mps 759 mmHg 66%
    10:00 +34°C° 0 mm 1 mps 759 mmHg 56%
    11:00 +36°C° 0 mm 1 mps 759 mmHg 45%
    12:00 +38°C° 0 mm 2 mps 758 mmHg 42%
    13:00 +38°C° 0 mm 2 mps 757 mmHg 38%
    14:00 +39°C° 0 mm 3 mps 756 mmHg 35%
    15:00 +37°C° 0 mm 3 mps 756 mmHg 43%
    16:00 +35°C° 0 mm 3 mps 756 mmHg 51%
    17:00 +33°C° 0 mm 4 mps 756 mmHg 59%
    18:00 +31°C° 0 mm 3 mps 757 mmHg 66%
    19:00 +30°C° 0 mm 3 mps 757 mmHg 73%
    20:00 +28°C° 0 mm 3 mps 758 mmHg 79%
    21:00 +28°C° 0 mm 3 mps 758 mmHg 82%
    22:00 +28°C° 0 mm 3 mps 758 mmHg 84%
    23:00 +27°C° 0 mm 2 mps 758 mmHg 86%

    23 December, Sunday

    Time Temperature Precipitation Wind Pressure Humidity
    00:00 +27°C° 0 mm 2 mps 757 mmHg 87%
    01:00 +27°C° 0 mm 2 mps 757 mmHg 89%
    02:00 +27°C° 0 mm 2 mps 757 mmHg 90%
    03:00 +27°C° 0 mm 2 mps 757 mmHg 90%
    04:00 +27°C° 0 mm 2 mps 757 mmHg 91%
    05:00 +26°C° 0 mm 2 mps 757 mmHg 91%
    06:00 +27°C° 0 mm 2 mps 758 mmHg 86%
    07:00 +28°C° 0 mm 2 mps 758 mmHg 81%
    08:00 +29°C° 0 mm 2 mps 759 mmHg 76%
    09:00 +32°C° 0 mm 2 mps 759 mmHg 65%
    10:00 +35°C° 0 mm 2 mps 758 mmHg 54%
    11:00 +37°C° 0 mm 2 mps 758 mmHg 43%
    12:00 +38°C° 0 mm 2 mps 757 mmHg 38%
    13:00 +39°C° 0 mm 2 mps 756 mmHg 34%
    14:00 +40°C° 0 mm 2 mps 755 mmHg 29%
    15:00 +38°C° 0 mm 3 mps 755 mmHg 37%
    16:00 +36°C° 0 mm 3 mps 756 mmHg 44%
    17:00 +34°C° 0 mm 3 mps 756 mmHg 52%
    18:00 +31°C° 0 mm 3 mps 756 mmHg 60%
    19:00 +30°C° 0 mm 3 mps 757 mmHg 69%
    20:00 +28°C° 0 mm 3 mps 757 mmHg 77%
    21:00 +28°C° 0 mm 3 mps 758 mmHg 80%
    22:00 +28°C° 0 mm 3 mps 758 mmHg 83%
    23:00 +27°C° 0 mm 3 mps 758 mmHg 86%

    24 December, Monday

    Time Temperature Precipitation Wind Pressure Humidity
    00:00 +27°C° 0 mm 3 mps 758 mmHg 87%
    01:00 +27°C° 0 mm 3 mps 757 mmHg 87%
    02:00 +27°C° 0 mm 3 mps 757 mmHg 88%
    03:00 +27°C° 0.1 mm 3 mps 757 mmHg 87%
    04:00 +27°C° 0.1 mm 3 mps 758 mmHg 87%
    05:00 +27°C° 0.1 mm 3 mps 758 mmHg 86%
    06:00 +28°C° 0 mm 3 mps 758 mmHg 82%
    07:00 +28°C° 0 mm 3 mps 759 mmHg 78%
    08:00 +29°C° 0 mm 3 mps 759 mmHg 73%
    09:00 +31°C° 0 mm 3 mps 759 mmHg 62%
    10:00 +34°C° 0 mm 3 mps 759 mmHg 51%
    11:00 +36°C° 0 mm 3 mps 758 mmHg 41%
    12:00 +37°C° 0 mm 3 mps 758 mmHg 37%
    13:00 +38°C° 0 mm 3 mps 757 mmHg 33%
    14:00 +38°C° 0 mm 3 mps 756 mmHg 29%
    15:00 +37°C° 0 mm 3 mps 756 mmHg 37%
    16:00 +35°C° 0 mm 3 mps 756 mmHg 45%
    17:00 +33°C° 0 mm 3 mps 756 mmHg 52%
    18:00 +31°C° 0 mm 3 mps 757 mmHg 61%
    19:00 +29°C° 0 mm 3 mps 758 mmHg 70%
    20:00 +28°C° 0 mm 3 mps 758 mmHg 78%
    21:00 +27°C° 0 mm 3 mps 758 mmHg 82%
    22:00 +27°C° 0 mm 3 mps 758 mmHg 85%
    23:00 +26°C° 0 mm 2 mps 758 mmHg 88%
    Show more